Location: Cahas Mountain Overlook
(37.0833°N, 80.1000°W)
Time: 20:02:31
(UTC-04:00)

Explorer 7 - Pass Details

Date: 09 February 2026
Orbit: 430 x 541 km, 50.2° (Epoch: 13 March)

Event Time Altitude Azimuth Distance (km) Brightness Sun altitude
Rises 19:56:35 0° 279° (W) 2,520 11.5 -24.9°
Reaches altitude 10° 19:59:19 10° 301° (WNW) 1,670 10.0 -25.4°
Enters shadow 20:01:43 17° 341° (NNW) 1,328 8.9 -25.9°
Maximum altitude 20:01:50 17° 343° (NNW) 1,328 - -25.9°
Drops below altitude 10° 20:04:25 10° 25° (NNE) 1,721 - -26.4°
Sets 20:07:18 0° 46° (NE) 2,635 - -27.0°
